Satellite: SO-50
Catalog number: 27607
Epoch time:      12186.62521029
Element set:    0804
Inclination:      064.5577 deg
RA of node:       241.8525 deg
Eccentricity:    0.0082092
Arg of perigee:   245.1657 deg
Mean anomaly:     114.0890 deg
Mean motion:   14.72418476 rev/day
Decay rate:       4.77e-06 rev/day^2
Epoch rev:           51253
Checksum:              307

Satellite: CO-55
Catalog number: 27844
Epoch time:      12186.52447700
Element set:    0412
Inclination:      098.7033 deg
RA of node:       194.6511 deg
Eccentricity:    0.0009601
Arg of perigee:   167.3572 deg
Mean anomaly:     192.7854 deg
Mean motion:   14.21036895 rev/day
Decay rate:       1.42e-06 rev/day^2
Epoch rev:           46735
Checksum:              310

Satellite: CO-57
Catalog number: 27848
Epoch time:      12186.53116025
Element set:    0361
Inclination:      098.7111 deg
RA of node:       193.9987 deg
Eccentricity:    0.0009523
Arg of perigee:   171.8864 deg
Mean anomaly:     188.2466 deg
Mean motion:   14.20787031 rev/day
Decay rate:       1.27e-06 rev/day^2
Epoch rev:           46729
Checksum:              335

Satellite: AO-51
Catalog number: 28375
Epoch time:      12186.85644218
Element set:    0308
Inclination:      098.1487 deg
RA of node:       151.3105 deg
Eccentricity:    0.0084300
Arg of perigee:   348.1924 deg
Mean anomaly:     011.7240 deg
Mean motion:   14.40961201 rev/day
Decay rate:       1.59e-06 rev/day^2
Epoch rev:           42131
Checksum:              276

Satellite: CP3
Catalog number: 31129
Epoch time:      12186.91740909
Element set:    0207
Inclination:      097.8799 deg
RA of node:       193.6475 deg
Eccentricity:    0.0102347
Arg of perigee:   068.3075 deg
Mean anomaly:     292.8993 deg
Mean motion:   14.53105598 rev/day
Decay rate:       8.97e-06 rev/day^2
Epoch rev:           27655
Checksum:              356

Satellite: CO-65
Catalog number: 32785
Epoch time:      12186.65215156
Element set:    0354
Inclination:      097.8010 deg
RA of node:       247.2916 deg
Eccentricity:    0.0014875
Arg of perigee:   009.6907 deg
Mean anomaly:     350.4596 deg
Mean motion:   14.83027525 rev/day
Decay rate:       7.65e-06 rev/day^2
Epoch rev:           22635
Checksum:              324

Satellite: PRISM
Catalog number: 33493
Epoch time:      12186.85954368
Element set:    0849
Inclination:      098.1727 deg
RA of node:       327.8448 deg
Eccentricity:    0.0017551
Arg of perigee:   237.8304 deg
Mean anomaly:     122.1226 deg
Mean motion:   14.83959950 rev/day
Decay rate:      1.622e-05 rev/day^2
Epoch rev:           18637
Checksum:              338

Satellite: SOHLA-1
Catalog number: 33496
Epoch time:      12186.87056257
Element set:    0782
Inclination:      098.1060 deg
RA of node:       298.4896 deg
Eccentricity:    0.0006550
Arg of perigee:   354.4111 deg
Mean anomaly:     005.7019 deg
Mean motion:   14.69986906 rev/day
Decay rate:       2.27e-06 rev/day^2
Epoch rev:           18484
Checksum:              332

Satellite: SO-67
Catalog number: 35870
Epoch time:      12186.91428362
Element set:    0107
Inclination:      097.2317 deg
RA of node:       222.0385 deg
Eccentricity:    0.0003949
Arg of perigee:   100.2308 deg
Mean anomaly:     016.6265 deg
Mean motion:   15.23946749 rev/day
Decay rate:      3.338e-05 rev/day^2
Epoch rev:           15531
Checksum:              304

Satellite: TISAT-1
Catalog number: 36799
Epoch time:      12186.89548133
Element set:    0125
Inclination:      098.0624 deg
RA of node:       263.3601 deg
Eccentricity:    0.0016363
Arg of perigee:   113.5133 deg
Mean anomaly:     246.7806 deg
Mean motion:   14.82008801 rev/day
Decay rate:      1.142e-05 rev/day^2
Epoch rev:           10711
Checksum:              280

Satellite: STUDSAT
Catalog number: 36801
Epoch time:      12186.93509160
Element set:    0426
Inclination:      098.0704 deg
RA of node:       264.1937 deg
Eccentricity:    0.0014138
Arg of perigee:   100.0395 deg
Mean anomaly:     260.2427 deg
Mean motion:   14.84451026 rev/day
Decay rate:      3.632e-05 rev/day^2
Epoch rev:           10715
Checksum:              270

Satellite: FO-69
Catalog number: 37227
Epoch time:      12179.46825757
Element set:    0219
Inclination:      071.9703 deg
RA of node:       289.2712 deg
Eccentricity:    0.0018108
Arg of perigee:   298.3339 deg
Mean anomaly:     061.6016 deg
Mean motion:   14.77092260 rev/day
Decay rate:       1.66e-06 rev/day^2
Epoch rev:           03761
Checksum:              323

Satellite: FO-70
Catalog number: 37380
Epoch time:      12179.47554455
Element set:    0223
Inclination:      071.9743 deg
RA of node:       289.8278 deg
Eccentricity:    0.0018623
Arg of perigee:   295.0880 deg
Mean anomaly:     064.8372 deg
Mean motion:   14.76843679 rev/day
Decay rate:       2.08e-06 rev/day^2
Epoch rev:           03750
Checksum:              341

Satellite: ALMASAT-1
Catalog number: 38078
Epoch time:      12186.71763913
Element set:    0353
Inclination:      069.4952 deg
RA of node:       277.5416 deg
Eccentricity:    0.0758070
Arg of perigee:   226.8561 deg
Mean anomaly:     126.6737 deg
Mean motion:   14.09666395 rev/day
Decay rate:     1.8145e-04 rev/day^2
Epoch rev:           02002
Checksum:              329

